Weather History for KSLE - June, 2014

Change the Weather History Date:

Sunday, June 1, 2014

  Actual Average Record
Temperature  
Mean Temperature 62 °F 59 °F  
Max Temperature 73 °F 71 °F 96 °F (1970)
Min Temperature 51 °F 48 °F 34 °F (1973)
Degree Days  
Heating Degree Days 3 6  
Month to date heating degree days 3 6  
Since 1 June heating degree days 3 6  
Since 1 July heating degree days 4296 4529  
Cooling Degree Days 0 0  
Month to date cooling degree days 0 0  
Year to date cooling degree days 16 9  
Since 1 June cooling degree days 0 0  
Growing Degree Days 14 (Base 50)    
Moisture  
Dew Point 49 °F    
Average Humidity 62    
Maximum Humidity 83    
Minimum Humidity 41    
Precipitation  
Precipitation 0.00 in 0.08 in 0.73 in (1993)
Month to date precipitation 0.00 0.08  
Year to date precipitation 21.37 19.62  
Sea Level Pressure  
Sea Level Pressure 30.04 in    
Wind  
Wind Speed 5 mph (North)    
Max Wind Speed 13 mph    
Max Gust Speed 18 mph    
Visibility 10 miles    
Events      
T = Trace of Precipitation, MM = Missing Value Source: NWS Daily Summary

Daily Weather History Graph

Daily Weather History Graph

Search for Another Location

Airport or City:

Trip Planner

Search our weather history database for the weather conditions in past years. The results will help you decide how hot, cold, wet, or windy it might be!

Date:

Astronomy

Jun. 01, 2014 Rise Set
Actual Time 5:28 AM PDT 8:51 PM PDT
Civil Twilight 4:52 AM PDT 9:27 PM PDT
Nautical Twilight 4:05 AM PDT 10:15 PM PDT
Astronomical Twilight 3:05 AM PDT 11:15 PM PDT
Moon 9:11 AM PDT (6/1) 11:43 PM PDT (6/1)
Length of Visible Light 16h 35m
Length of Day
15h 22m
Waxing Crescent, 15% of the Moon is Illuminated
Jun 1
Waxing Crescent
Jun 5
First Quarter
Jun 12
Full
Jun 19
Last Quarter
Jun 27
New

Hourly Weather History & Observations

Time (PDT) Temp. Dew Point Humidity Pressure Visibility Wind Dir Wind Speed Gust Speed Precip Events Conditions
12:56 AM 54.0 °F 46.9 °F 77% 30.10 in 10.0 mi Calm Calm - N/A   Clear
1:56 AM 53.1 °F 46.9 °F 80% 30.11 in 10.0 mi NNW 3.5 mph - N/A   Mostly Cloudy
2:31 AM 53.1 °F 46.9 °F 80% 30.11 in 10.0 mi NNW 5.8 mph - N/A   Mostly Cloudy
3:56 AM 54.0 °F 48.0 °F 80% 30.11 in 10.0 mi North 5.8 mph - N/A   Overcast
4:56 AM 54.0 °F 48.0 °F 80% 30.10 in 10.0 mi NNW 5.8 mph - N/A   Overcast
7:56 AM 55.9 °F 48.0 °F 75% 30.12 in 10.0 mi North 5.8 mph - N/A   Overcast
8:56 AM 57.0 °F 48.0 °F 72% 30.12 in 10.0 mi NNE 5.8 mph - N/A   Overcast
10:56 AM 60.1 °F 46.9 °F 62% 30.11 in 10.0 mi Variable 4.6 mph - N/A   Overcast
12:56 PM 64.0 °F 48.0 °F 56% 30.07 in 10.0 mi Calm Calm - N/A   Mostly Cloudy
1:43 PM 66.0 °F 48.9 °F 54% 30.06 in 10.0 mi Variable 3.5 mph - N/A   Partly Cloudy
1:56 PM 66.0 °F 48.9 °F 54% 30.05 in 10.0 mi NNW 9.2 mph - N/A   Partly Cloudy
2:56 PM 69.1 °F 48.9 °F 49% 30.03 in 10.0 mi North - - N/A   Clear
4:56 PM 73.0 °F 48.9 °F 42% 29.99 in 10.0 mi NNE 10.4 mph - N/A   Partly Cloudy
5:56 PM 73.0 °F 48.9 °F 42% 29.96 in 10.0 mi North 8.1 mph - N/A   Clear
6:56 PM 73.0 °F 50.0 °F 44% 29.95 in 10.0 mi North 11.5 mph - N/A   Clear
7:56 PM 71.1 °F 50.0 °F 47% 29.94 in 10.0 mi North 8.1 mph - N/A   Clear
8:56 PM 66.0 °F 52.0 °F 60% 29.95 in 10.0 mi NW 5.8 mph - N/A   Clear
9:56 PM 62.1 °F 51.1 °F 67% 29.96 in 10.0 mi Calm Calm - N/A   Clear
10:56 PM 59.0 °F 50.0 °F 72% 29.96 in 10.0 mi Calm Calm - N/A   Clear
11:56 PM 55.0 °F 50.0 °F 83% 29.96 in 10.0 mi Calm Calm - N/A   Clear